Погода в Трестне

Россия / Тверская область     57°31′46″N   35°58′00″E
темп.,
°C
ветер,
м/с
пор.,
м/с
влажн.,
%
обл.,
%
осадки,
мм/ч
давл.,
гПа
погр.,
м
27 января, чт
чт2700:00−18юз11100100 0.0 101713
03:00−16ююз25100100 0.1 101676
06:00−13ю3897100 0.0 1014185
09:00−12ю31095100 0.0 1013258
12:00−10ю41191100 0.0 1012347
15:00−9ю5139049 0.0 1010500
18:00−10ю51492100 0.0 1008489
21:00−9ю51393100 0.3 1006503
28 января, пт
пт2800:00−9ю51393100 0.3 1005468
03:00−9ююв5139395 0.4 1003440
06:00−9ююв51493100 0.1 1001440
09:00−8ююв51493100 0.4 1000481
12:00−7ююв51293100 0.4 1000486
15:00−5ююв41094100 0.9 999499
18:00−6ююв41095100 0.4 1000418
21:00−7юв499585 0.5 1000298
29 января, сб
сб2900:00−7юв389689 0.1 1000248
03:00−7юв379699 0.3 1001201
06:00−7юв259795 0.3 1001148
09:00−8юв1397100 0.7 1002100
12:00−5зсз139399 0.4 1002243
15:00−5сз369495 0.7 1003449
18:00−7зсз279675 0.2 1003262
21:00−11з239988 0.3 100261
30 января, вс
вс3000:00−16ююз24100100 0.0 100047
03:00−14ю311100100 0.1 996190
06:00−11ююв51495100 0.0 990336
09:00−8юв61894100 0.3 985738
12:00−5юв61594100 0.9 981896
15:00−4юв61394100 1.9 979788
18:00−4юв51394100 0.9 980644
21:00−4юв4119597 1.6 980478
31 января, пн
пн3100:00−4вюв4109589 0.3 981378
03:00−4в41096100 0.9 982433
06:00−5в389599 0.3 983274
09:00−7св3896100 0.6 985244
12:00−6ссв3795100 0.1 987306
15:00−5с4894100 0.3 988419
18:00−6с4995100 0.7 990447
21:00−7ссз499594 1.2 991416